Weather in Nosovo

Russia / Pskov Oblast     57°06′35″N   27°49′08″E
В апреле 2022 года жителям России запретили посещать сайт meteo.paraplan.net по решению Генеральной прокуратуры. Аудитория сайта уменьшилась в 10 раз. Владельцы сайта не видят смысла в поддержке погодного сервера в таких условиях. Сайт будет закрыт в октябре.
temp.,
°C
wind,
m/s
gust,
m/s
humid.,
%
clouds,
%
prec.,
mm/h
press.,
hPa
HPBL,
m
25 september, sun
sun2500:00+5nw41093100 0.0 1012217
03:00+5nw5119570 0.0 1012256
06:00+4wnw4119499 0.0 1012256
09:00+7nw511755 0.0 1011425
12:00+13nw685120 0.0 10101481
15:00+14nw674434 0.0 10091872
18:00+12nw5850100 0.0 1009717
21:00+10wnw2563100 0.0 1009153
26 september, mon
mon2600:00+9w226895 0.0 100947
03:00+5wnw228946 0.0 100923
06:00+4nw119116 0.0 100910
09:00+7sse00765 0.0 1009114
12:00+13sse115210 0.0 1009705
15:00+15ssw225027 0.0 10091434
18:00+13sse11605 0.0 100913
21:00+8ese22805 0.0 101017
27 september, tue
tue2700:00+6ese33865 0.0 101041
03:00+5se22905 0.0 101023
06:00+4ese33933 0.0 101045
09:00+7e36795 0.0 1010225
12:00+14e45535 0.0 1009799
15:00+15e444718 0.0 10081449
18:00+12ene47577 0.0 1008285
21:00+7ene4107798 0.0 1008235
28 september, wed
wed2800:00+5ene49959 0.0 1008184
03:00+4ne369772 0.0 1007115
06:00+6ne3788100 0.0 1006242
09:00+8ene4983100 0.0 1005343
12:00+10ene5776100 0.0 1004477
15:00+13ene675467 0.0 10031490
18:00+11ene5862100 0.1 1003732
21:00+8ene4784100 0.1 1003508
29 september, thu
thu2900:00+8ene2586100 0.0 1003372
03:00+8e1288100 0.0 1004173
06:00+7se2391100 0.1 1004126
09:00+9sse368881 0.1 1005339
12:00+10s5978100 0.1 1006842
15:00+12s686973 0.1 1006977
18:00+11s5772100 0.0 10081010
21:00+11s487498 0.0 1010343